Terminal Aerodrome Forecast
Issued by NWS Salt Lake City, UT

Home | Current Version | Previous Version | Text Only | Print | Product List | Glossary On
Versions: 1 2 3 4 5 6 7 8 9 10 11 12 13 14 15 16 17 18 19 20 21 22 23 24 25 26 27 28 29 30 31 32 33 34 35 36 37 38 39 40 41 42 43 44 45 46 47 48 49 50
000
FTUS45 KSLC 020541
TAFSLC
TAF
KSLC 020541Z 0206/0312 33004KT P6SM BKN070 BKN080
     FM020900 15004KT P6SM VCSH BKN050
     FM021500 32005KT P6SM -RASN SCT025 BKN040
     FM021800 32007KT P6SM -RA SCT025 BKN040
     FM030000 31009KT 5SM -RASN BR SCT025 BKN040
     FM030600 29004KT 5SM -SN SCT010 BKN025=

USA.gov is the U.S. government's official web portal to all federal, state and local government web resources and services.